Weather in Levanto

Italy     44°10′16″N   9°36′41″E
temp.,
°C
wind,
m/s
gust,
m/s
humid.,
%
clouds,
%
prec.,
mm/h
press.,
hPa
HPBL,
m
11 may, tue
tue1123:00+14ene447556 0.0 101468
02:00+14ene2272100 0.0 101421
05:00+13ne3389100 0.9 101252
08:00+13ese4992100 4.3 1012739
11:00+12ese3697100 4.3 1011345
14:00+14sse3799100 13.6 1009558
17:00+12ssw1196100 15.4 1010108
20:00+12se2293100 18.3 101072
12 may, wed
wed1223:00+11ene3494100 0.7 101095
02:00+11ene3393100 0.8 100987
05:00+11ene239358 0.9 100869
08:00+12n118981 0.9 100980
11:00+15sw227296 0.0 1009769
14:00+16sw237356 0.4 1010881
17:00+13se348280 0.6 1009618
20:00+12s358791 0.8 1010497
13 may, thu
thu1323:00+11s239286 0.6 1010244
02:00+11e2291100 1.6 100994
05:00+10ene339275 0.6 1007155
08:00+12ne238851 0.6 1006144
11:00+15e247363 0.1 1006752
14:00+14s448884 1.9 1006758
17:00+11sse358788 1.2 1006630
20:00+12e35834 1.3 1005227
14 may, fri
fri1423:00+10ne448756 0.0 1005109
02:00+11nne228513 0.0 100650
05:00+9nne218611 0.0 100751
08:00+12e227518 0.1 1008155
11:00+14se3481100 1.2 1009818
14:00+13sw5789100 4.1 1010727
17:00+13s348874 3.1 1010625
20:00+11ene1189100 4.6 1009152
15 may, sat
sat1523:00+10ne118976 0.0 1010101
02:00+8ne228965 0.0 101045
05:00+8ne228777 0.0 100951
08:00+12ne22814 0.0 1010110
11:00+15sw326217 0.0 10111003
14:00+16wsw3363100 0.1 1011922
17:00+14wsw2274100 0.0 1011700
20:00+12se348698 0.1 1011291